Location: Clarion
(42.7316°N, 93.7330°W)
Time: 09:54:21
(UTC+00:00)

PAYLOAD B - Pass Details

Date: 22 April 2026
Orbit: 848 x 869 km, 99.0° (Epoch: 17 May)

Event Time Altitude Azimuth Distance (km) Brightness Sun altitude
Exits shadow 02:27:31 12° 165° (SSE) 2,357 6.1 -14.7°
Maximum altitude 02:32:43 88° 256° (WSW) 854 4.2 -15.5°
Drops below altitude 10° 02:38:15 10° 346° (NNW) 2,483 7.3 -16.3°
Sets 02:40:37 0° 346° (NNW) 3,424 8.2 -16.7°
